Home   Weather   39°59'N, 82°50'W   Past weeks
Flag for USA

Past Weather in 39°59'N, 82°50'W, USA — Yesterday and Last 2 Weeks

Now
72 °F

Passing clouds.


Feels Like: 75 °F
Forecast: 86 / 66 °F
Wind: 5 mph from South

Location: John Glenn Columbus International Airport

Current Time: Jun 26, 2019 at 12:29:43 am

Latest Report: Jun 25, 2019 at 11:51 pm


Visibility: 10 mi

Pressure: 30.01 "Hg

Humidity: 66%

Dew Point: 60 °F

Location of 39°59'N, 82°50'WLocation

Past Weather in 39°59'N, 82°50'W — Graph

°F

39°59'N, 82°50'W Temperature Yesterday

Maximum temperature yesterday: 84 °F (at 3:51 pm)
Minimum temperature yesterday: 66 °F (at 5:51 am)
Average temperature yesterday: 75 °F

High & Low Weather Summary for the Past Weeks

 TemperatureHumidityPressure
High84 °F (Jun 25, 3:51 pm)97% (Jun 16, 7:38 am)30.23 "Hg (Jun 16, 7:38 am)
Low49 °F (Jun 11, 5:51 am)28% (Jun 14, 4:51 pm)29.54 "Hg (Jun 20, 3:51 pm)
Average69 °F73%29.90 "Hg
* Reported Jun 10 10:51 pm — Jun 25 10:51 pm, 39°59'N, 82°50'W. Weather by CustomWeather, © 2019

Note: Actual official high and low records may vary slightly from our data, if they occured in-between our weather recording intervals... More about our weather records

Advertising

39°59'N, 82°50'W Weather History for the Previous 24 Hours

Scroll right to see more
 ConditionsComfort  
Time TempWeatherWind HumidityBarometerVisibility
10:51 pm
Tue, Jun 25
75 °FClear.8 mph58%30.01 "Hg10 mi
9:51 pm77 °FPassing clouds.8 mph52%29.98 "Hg10 mi
8:51 pm79 °FPassing clouds.13 mph45%29.96 "Hg10 mi
7:51 pm81 °FPassing clouds.15 mph41%29.96 "Hg10 mi
6:51 pm82 °FScattered clouds.12 mph40%29.94 "Hg10 mi
5:51 pm84 °FScattered clouds.13 mph38%29.95 "Hg10 mi
4:51 pm83 °FScattered clouds.12 mph38%29.95 "Hg10 mi
3:51 pm84 °FScattered clouds.16 mph38%29.96 "Hg10 mi
2:51 pm83 °FScattered clouds.16 mph43%29.97 "Hg10 mi
1:51 pm82 °FScattered clouds.14 mph44%29.97 "Hg10 mi
12:51 pm80 °FScattered clouds.16 mph47%29.98 "Hg10 mi
11:51 am78 °FScattered clouds.14 mph54%29.97 "Hg10 mi
10:51 am77 °FScattered clouds.13 mph54%29.95 "Hg10 mi
9:51 am74 °FScattered clouds.9 mph64%29.95 "Hg10 mi
8:51 am71 °FScattered clouds.8 mph76%29.93 "Hg10 mi
7:51 am69 °FPassing clouds.9 mph81%29.91 "Hg10 mi
6:51 am67 °FPassing clouds.6 mph90%29.89 "Hg10 mi
5:51 am66 °FPassing clouds.5 mph93%29.86 "Hg10 mi
4:51 am67 °FPassing clouds.6 mph90%29.83 "Hg10 mi
3:51 am68 °FPassing clouds.7 mph90%29.82 "Hg10 mi
2:51 am68 °FMostly cloudy.6 mph90%29.81 "Hg10 mi
1:51 am68 °FPassing clouds.6 mph90%29.80 "Hg10 mi
12:51 am68 °FPassing clouds.7 mph90%29.80 "Hg10 mi
Weather by CustomWeather, © 2019

See weather overview